SBI5515 UNNT-UACC

Flight info

Callsign SBI5515
Flight time N/A
Altitude 36000
Route ALIRO1K ALIRO R484 MISLU A366 LAGMO L988 ABELI Z746 EDANO EDANO1D
Aircraft B733/M-SDE2E3FHIRW/S

Departure

Time N/A
Airport Novosibirsk Tolmachevo Airport (UNNT)

Arrival

Time 2026-04-27 13:00
Airport Nursultan Nazarbayev International Airport (UACC)
Time Latitude Longitude Altitude Speed Heading
2026-04-27 11:49 52.77032 81.58055 35592 ft 374 kts 238°
2026-04-27 11:49 52.75646 81.54424 35662 ft 374 kts 238°
2026-04-27 11:50 52.72858 81.47165 35741 ft 376 kts 238°
2026-04-27 11:50 52.70061 81.39915 35885 ft 375 kts 238°
2026-04-27 11:51 52.67252 81.32652 35950 ft 377 kts 238°
2026-04-27 11:51 52.64434 81.25374 36054 ft 377 kts 238°
2026-04-27 11:52 52.63019 81.21732 36105 ft 377 kts 237°
2026-04-27 11:52 52.60167 81.14413 36129 ft 379 kts 237°
2026-04-27 11:53 52.57310 81.07106 36152 ft 381 kts 237°
2026-04-27 11:53 52.54420 80.99734 36173 ft 382 kts 238°
2026-04-27 11:54 52.51548 80.92431 36180 ft 382 kts 238°
2026-04-27 11:54 52.48668 80.85128 36015 ft 381 kts 237°
2026-04-27 11:54 52.47225 80.81475 36156 ft 379 kts 237°
2026-04-27 11:55 52.45786 80.77838 36181 ft 380 kts 238°
2026-04-27 11:55 52.42889 80.70534 36173 ft 382 kts 238°
2026-04-27 11:56 52.39974 80.63206 36180 ft 383 kts 238°
2026-04-27 11:56 52.37064 80.55913 36186 ft 383 kts 238°
2026-04-27 11:57 52.34137 80.48595 36185 ft 383 kts 238°
2026-04-27 11:57 52.31194 80.41260 36186 ft 383 kts 238°
2026-04-27 11:58 52.28284 80.34027 36184 ft 383 kts 237°
2026-04-27 11:58 52.25329 80.26684 36193 ft 384 kts 237°
2026-04-27 11:59 52.22401 80.19441 36183 ft 385 kts 237°
2026-04-27 11:59 52.19434 80.12130 36189 ft 384 kts 237°
2026-04-27 12:00 52.16489 80.04894 36169 ft 384 kts 237°
2026-04-27 12:00 52.13534 79.97656 36170 ft 384 kts 237°
2026-04-27 12:01 52.10576 79.90428 36191 ft 384 kts 237°
2026-04-27 12:01 52.07604 79.83189 36208 ft 385 kts 237°
2026-04-27 12:02 52.04641 79.75992 36229 ft 385 kts 237°
2026-04-27 12:02 52.01676 79.68810 36207 ft 383 kts 237°
2026-04-27 12:03 51.98712 79.61652 36200 ft 383 kts 237°
2026-04-27 12:03 51.95730 79.54469 36196 ft 383 kts 237°
2026-04-27 12:04 51.92758 79.47330 36195 ft 383 kts 237°
2026-04-27 12:04 51.89784 79.40207 36186 ft 383 kts 237°
2026-04-27 12:05 51.86778 79.33075 36175 ft 384 kts 236°
2026-04-27 12:05 51.83820 79.25951 36178 ft 383 kts 242°
2026-04-27 12:05 51.82983 79.21895 36186 ft 382 kts 261°
2026-04-27 12:06 51.82761 79.17634 36160 ft 385 kts 264°
2026-04-27 12:06 51.82448 79.08964 36176 ft 386 kts 263°
2026-04-27 12:07 51.82089 79.00336 36175 ft 386 kts 263°
2026-04-27 12:07 51.81711 78.91698 36184 ft 387 kts 263°
2026-04-27 12:08 51.81323 78.83043 36184 ft 387 kts 263°
2026-04-27 12:08 51.80928 78.74363 36212 ft 388 kts 263°
2026-04-27 12:09 51.80528 78.65721 36231 ft 386 kts 263°
2026-04-27 12:09 51.80122 78.57082 36193 ft 385 kts 263°
2026-04-27 12:10 51.79711 78.48509 36191 ft 385 kts 263°
2026-04-27 12:10 51.79293 78.39887 36189 ft 386 kts 263°
2026-04-27 12:11 51.78867 78.31224 36157 ft 386 kts 263°
2026-04-27 12:11 51.78438 78.22621 36196 ft 386 kts 263°
2026-04-27 12:12 51.77998 78.13956 36178 ft 387 kts 263°
2026-04-27 12:12 51.77555 78.05337 36186 ft 387 kts 263°
2026-04-27 12:13 51.77106 77.96740 36178 ft 387 kts 262°
2026-04-27 12:13 51.76647 77.88079 36206 ft 387 kts 262°
2026-04-27 12:14 51.76119 77.79472 36231 ft 386 kts 262°
2026-04-27 12:14 51.75602 77.70914 36194 ft 385 kts 262°
2026-04-27 12:15 51.75117 77.62322 36195 ft 385 kts 262°
2026-04-27 12:15 51.74635 77.53759 36183 ft 385 kts 263°
2026-04-27 12:16 51.74149 77.45207 36192 ft 385 kts 263°
2026-04-27 12:16 51.73654 77.36624 36191 ft 386 kts 263°
2026-04-27 12:17 51.73154 77.28024 36188 ft 385 kts 262°
2026-04-27 12:17 51.72646 77.19413 36194 ft 387 kts 262°
2026-04-27 12:18 51.72090 77.10789 36186 ft 386 kts 262°
2026-04-27 12:18 51.71553 77.02203 36176 ft 387 kts 262°
2026-04-27 12:19 51.71022 76.93594 36183 ft 387 kts 262°
2026-04-27 12:19 51.70480 76.85027 36221 ft 386 kts 262°
2026-04-27 12:20 51.69927 76.76443 36220 ft 385 kts 262°
2026-04-27 12:20 51.69381 76.67899 36195 ft 384 kts 262°
2026-04-27 12:21 51.68834 76.59396 36197 ft 385 kts 262°
2026-04-27 12:21 51.68279 76.50851 36188 ft 385 kts 262°
2026-04-27 12:22 51.67712 76.42233 36191 ft 386 kts 262°
2026-04-27 12:22 51.67144 76.33690 36180 ft 386 kts 261°
2026-04-27 12:23 51.66570 76.25133 36196 ft 386 kts 261°
2026-04-27 12:23 51.65987 76.16541 36188 ft 386 kts 261°
2026-04-27 12:24 51.65402 76.08021 36190 ft 386 kts 261°
2026-04-27 12:24 51.64806 75.99452 36177 ft 386 kts 261°
2026-04-27 12:25 51.64204 75.90890 36186 ft 386 kts 261°
2026-04-27 12:25 51.63597 75.82333 36229 ft 386 kts 261°
2026-04-27 12:26 51.62982 75.73749 36225 ft 384 kts 261°
2026-04-27 12:26 51.62367 75.65263 36183 ft 384 kts 261°
2026-04-27 12:27 51.61743 75.56741 36193 ft 385 kts 261°
2026-04-27 12:27 51.61114 75.48232 36197 ft 384 kts 261°
2026-04-27 12:28 51.60477 75.39708 36186 ft 385 kts 261°
2026-04-27 12:28 51.59832 75.31144 36167 ft 385 kts 260°
2026-04-27 12:29 51.59177 75.22657 36197 ft 384 kts 258°
2026-04-27 12:29 51.57683 75.14461 36176 ft 383 kts 251°
2026-04-27 12:30 51.56110 75.06305 36196 ft 384 kts 252°
2026-04-27 12:30 51.54577 74.98102 36205 ft 383 kts 252°
2026-04-27 12:31 51.53052 74.89925 36191 ft 385 kts 252°
2026-04-27 12:31 51.51524 74.81751 36222 ft 383 kts 252°
2026-04-27 12:32 51.49981 74.73543 36216 ft 383 kts 252°
2026-04-27 12:32 51.48448 74.65419 36199 ft 382 kts 252°
2026-04-27 12:33 51.46912 74.57315 36190 ft 382 kts 252°
2026-04-27 12:33 51.45364 74.49181 36193 ft 383 kts 252°
2026-04-27 12:34 51.43813 74.41066 36195 ft 382 kts 252°
2026-04-27 12:34 51.42245 74.32897 36187 ft 383 kts 251°
2026-04-27 12:35 51.40682 74.24766 36192 ft 383 kts 251°
2026-04-27 12:35 51.39113 74.16658 36182 ft 382 kts 251°
2026-04-27 12:36 51.37525 74.08490 36196 ft 383 kts 251°
2026-04-27 12:36 51.35934 74.00348 36206 ft 383 kts 251°
2026-04-27 12:37 51.34349 73.92264 36188 ft 383 kts 251°
2026-04-27 12:37 51.32737 73.84115 36216 ft 383 kts 251°
2026-04-27 12:37 51.31929 73.80067 35986 ft 383 kts 251°
2026-04-27 12:38 51.31122 73.76018 35326 ft 388 kts 251°
2026-04-27 12:38 51.30306 73.71933 34313 ft 391 kts 251°
2026-04-27 12:38 51.29489 73.67847 33435 ft 381 kts 250°
2026-04-27 12:38 51.28707 73.63939 32849 ft 370 kts 250°
2026-04-27 12:39 51.27930 73.60063 32265 ft 361 kts 250°
2026-04-27 12:39 51.27178 73.56328 31652 ft 354 kts 250°
2026-04-27 12:39 51.26433 73.52628 31023 ft 348 kts 250°
2026-04-27 12:39 51.25672 73.48868 30404 ft 363 kts 250°
2026-04-27 12:40 51.24892 73.45017 29743 ft 368 kts 250°
2026-04-27 12:40 51.24106 73.41135 29087 ft 373 kts 250°
2026-04-27 12:40 51.23304 73.37189 28415 ft 372 kts 250°
2026-04-27 12:40 51.22521 73.33332 27747 ft 363 kts 249°
2026-04-27 12:41 51.21740 73.29489 27224 ft 371 kts 249°
2026-04-27 12:41 51.20930 73.25526 26803 ft 379 kts 250°
2026-04-27 12:41 51.20125 73.21586 26300 ft 368 kts 251°
2026-04-27 12:41 51.19338 73.17747 25809 ft 374 kts 253°
2026-04-27 12:42 51.18509 73.13702 25332 ft 394 kts 255°
2026-04-27 12:42 51.17636 73.09451 24806 ft 409 kts 255°
2026-04-27 12:42 51.16758 73.05206 24245 ft 400 kts 255°
2026-04-27 12:42 51.15902 73.01080 23695 ft 388 kts 255°
2026-04-27 12:43 51.15070 72.97070 23183 ft 386 kts 255°
2026-04-27 12:43 51.14204 72.92950 22671 ft 397 kts 255°
2026-04-27 12:43 51.13347 72.88851 22138 ft 385 kts 255°
2026-04-27 12:43 51.12530 72.84891 21613 ft 374 kts 255°
2026-04-27 12:44 51.11733 72.81007 21121 ft 374 kts 255°
2026-04-27 12:44 51.10912 72.76990 20626 ft 383 kts 255°
2026-04-27 12:44 51.10087 72.72977 20100 ft 371 kts 255°
2026-04-27 12:44 51.09306 72.69181 19615 ft 359 kts 255°
2026-04-27 12:45 51.08524 72.65376 19125 ft 370 kts 255°
2026-04-27 12:45 51.07713 72.61437 18612 ft 369 kts 255°
2026-04-27 12:45 51.06926 72.57636 18115 ft 357 kts 255°
2026-04-27 12:45 51.06162 72.53948 17652 ft 347 kts 255°
2026-04-27 12:46 51.05392 72.50222 17198 ft 363 kts 255°
2026-04-27 12:46 51.04610 72.46460 16706 ft 356 kts 255°
2026-04-27 12:46 51.03838 72.42811 16213 ft 345 kts 252°
2026-04-27 12:46 51.02603 72.39558 15761 ft 353 kts 230°
2026-04-27 12:47 51.00548 72.37177 15435 ft 369 kts 206°
2026-04-27 12:47 50.98050 72.36257 15303 ft 380 kts 183°
2026-04-27 12:47 50.95383 72.36565 15253 ft 379 kts 176°
2026-04-27 12:47 50.92780 72.36850 15247 ft 378 kts 186°
2026-04-27 12:48 50.90238 72.35879 15292 ft 373 kts 205°
2026-04-27 12:48 50.87786 72.34274 15241 ft 374 kts 205°
2026-04-27 12:48 50.85382 72.32720 15263 ft 374 kts 204°
2026-04-27 12:48 50.83044 72.30957 15254 ft 370 kts 218°
2026-04-27 12:49 50.81195 72.28106 15275 ft 365 kts 232°
2026-04-27 12:49 50.79675 72.24906 15266 ft 361 kts 246°
2026-04-27 12:49 50.78998 72.21161 15282 ft 355 kts 268°
2026-04-27 12:49 50.79243 72.17322 15066 ft 354 kts 288°
2026-04-27 12:50 50.80400 72.13896 14311 ft 352 kts 311°
2026-04-27 12:50 50.82279 72.11463 13572 ft 346 kts 332°
2026-04-27 12:50 50.84487 72.09994 12956 ft 339 kts 338°
2026-04-27 12:50 50.86652 72.08648 12378 ft 332 kts 337°
2026-04-27 12:51 50.88805 72.07300 11843 ft 335 kts 337°
2026-04-27 12:51 50.90964 72.05946 11316 ft 335 kts 338°
2026-04-27 12:51 50.93114 72.04597 11099 ft 328 kts 338°
2026-04-27 12:51 50.95203 72.03277 10962 ft 309 kts 336°
2026-04-27 12:52 50.97071 72.01820 10794 ft 292 kts 332°
2026-04-27 12:52 50.98858 72.00348 10358 ft 287 kts 332°
2026-04-27 12:52 51.00608 71.98912 10087 ft 275 kts 332°
2026-04-27 12:52 51.02267 71.97553 9822 ft 266 kts 332°
2026-04-27 12:53 51.05568 71.94847 9066 ft 265 kts 332°
2026-04-27 12:53 51.07227 71.93481 8501 ft 271 kts 332°
2026-04-27 12:53 51.08904 71.92101 8040 ft 273 kts 332°
2026-04-27 12:54 51.10601 71.90707 7646 ft 270 kts 332°
2026-04-27 12:54 51.12253 71.89359 7316 ft 264 kts 332°
2026-04-27 12:54 51.13880 71.88004 6989 ft 261 kts 328°
2026-04-27 12:54 51.15229 71.86152 6780 ft 253 kts 314°
2026-04-27 12:55 51.16487 71.84132 6679 ft 256 kts 314°
2026-04-27 12:55 51.17741 71.82129 6690 ft 256 kts 314°
2026-04-27 12:55 51.19001 71.80103 6701 ft 256 kts 312°
2026-04-27 12:55 51.19830 71.77658 6708 ft 255 kts 279°
2026-04-27 12:56 51.19724 71.74842 6563 ft 263 kts 251°
2026-04-27 12:56 51.18693 71.72375 5818 ft 277 kts 225°
2026-04-27 12:56 51.17282 71.70191 5042 ft 290 kts 226°
2026-04-27 12:56 51.15837 71.67915 4279 ft 300 kts 226°
2026-04-27 12:57 51.14363 71.65597 4018 ft 290 kts 226°
2026-04-27 12:57 51.12954 71.63383 3847 ft 279 kts 226°
2026-04-27 12:57 51.11596 71.61254 3491 ft 264 kts 226°
2026-04-27 12:57 51.10319 71.59257 3094 ft 246 kts 227°
2026-04-27 12:58 51.09148 71.57416 2769 ft 228 kts 227°
2026-04-27 12:58 51.08057 71.55705 2472 ft 210 kts 227°
2026-04-27 12:58 51.07070 71.54156 2210 ft 193 kts 227°
2026-04-27 12:58 51.06153 71.52720 1969 ft 176 kts 227°
2026-04-27 12:59 51.05338 71.51446 1771 ft 157 kts 227°
2026-04-27 12:59 51.04553 71.50209 1532 ft 156 kts 228°
2026-04-27 12:59 51.03798 71.49018 1315 ft 152 kts 227°
2026-04-27 12:59 51.03051 71.47861 1175 ft 145 kts 227°
2026-04-27 13:00 51.02415 71.46865 1173 ft 105 kts 225°
2026-04-27 13:00 51.02007 71.46227 1173 ft 59 kts 225°
2026-04-27 13:00 51.01781 71.45875 1173 ft 45 kts 224°
2026-04-27 13:00 51.01706 71.45641 1173 ft 17 kts 312°
2026-04-27 13:01 51.01717 71.45622 1173 ft 3 kts 313°
2026-04-27 13:01 51.01746 71.45573 1173 ft 8 kts 313°
2026-04-27 13:01 51.01807 71.45496 1173 ft 14 kts 355°
2026-04-27 13:01 51.01895 71.45593 1173 ft 15 kts 45°
2026-04-27 13:02 51.01935 71.45654 1173 ft 4 kts 44°
2026-04-27 13:02 51.01980 71.45724 1173 ft 15 kts 46°
2026-04-27 13:02 51.02077 71.45879 1173 ft 21 kts 47°
2026-04-27 13:02 51.02169 71.46018 1173 ft 16 kts 46°
2026-04-27 13:03 51.02263 71.46168 1173 ft 23 kts 46°
2026-04-27 13:03 51.02374 71.46211 1173 ft 17 kts 311°
2026-04-27 13:03 51.02388 71.46079 1173 ft 14 kts 225°
2026-04-27 13:03 51.02306 71.45949 1173 ft 13 kts 240°
2026-04-27 13:04 51.02347 71.45823 1173 ft 15 kts 315°
2026-04-27 13:04 51.02400 71.45738 1173 ft 0 kts 317°
2026-04-27 13:04 51.02406 71.45730 1173 ft 0 kts 319°
2026-04-27 13:07 51.02406 71.45731 1173 ft 0 kts 319°
2026-04-27 13:07 51.02404 71.45734 1173 ft 2 kts 320°
2026-04-27 13:08 51.02390 71.45742 1173 ft 2 kts 360°
2026-04-27 13:08 51.02375 71.45737 1173 ft 2 kts 31°
2026-04-27 13:08 51.02364 71.45721 1173 ft 1 kts 47°
2026-04-27 13:08 51.02361 71.45716 1173 ft 0 kts 43°